Tracking 19638 objects as of 21-Apr-2019
HD Live streaming from Space Station
objects crossing your sky now

COSMOS 1823 DEB

Track COSMOS 1823 DEB now!
10-day predictions


NORAD ID: 29356
Int'l Code: 1987-020DX
Perigee: 1,465.2 km
Apogee: 1,519.6 km
Inclination: 73.7 °
Period: 115.7 minutes
Semi major axis: 7863 km
RCS: 0.0302 m2 (small)
Launch date: February 20, 1987
Source: Commonwealth of Independent States (former USSR) (CIS)
Launch site: PLESETSK MISSILE AND SPACE COMPLEX (PKMTR)

Note: This is SATELLITE DEBRIS
aabbcc
Your satellite tracking list
Your tracking list is empty




NASA's NSSDC Master Catalog

Two Line Element Set (TLE):
1 29356U 87020DX  19110.95316154  .00000062  00000-0  55418-3 0  9992
2 29356  73.6537 320.8683 0034560 268.3729 158.2246 12.45056315760501
Source of the keplerian elements: AFSPC